This is the latest recevied weather packets stored in our database for station/object OK2ILA-10. If no packets are shown the sender has not sent any weather packets the latest 10 day(s).
| Time | Temp. | Humidity | Pressure | Rain* | Wind** | Luminosity | Snow |
|---|---|---|---|---|---|---|---|
| 1778155613 | 20° C | 52% | 1013.1 hPa | - | - | - | - |
| 1778155609 | 20° C | 52% | 1013.1 hPa | - | - | - | - |
| 1778155012 | 20° C | 52% | 1013.2 hPa | - | - | - | - |
| 1778155008 | 20° C | 52% | 1013.2 hPa | - | - | - | - |
| 1778154412 | 20.56° C | 51% | 1013.2 hPa | - | - | - | - |
| 1778154408 | 20.56° C | 51% | 1013.2 hPa | - | - | - | - |
| 1778153812 | 21.67° C | 50% | 1013.3 hPa | - | - | - | - |
| 1778153808 | 21.67° C | 50% | 1013.3 hPa | - | - | - | - |
| 1778153212 | 20.56° C | 52% | 1013.2 hPa | - | - | - | - |
| 1778153208 | 20.56° C | 52% | 1013.2 hPa | - | - | - | - |
| 1778152612 | 20.56° C | 52% | 1013.2 hPa | - | - | - | - |
| 1778152608 | 20.56° C | 52% | 1013.2 hPa | - | - | - | - |
| 1778152011 | 20.56° C | 51% | 1013.3 hPa | - | - | - | - |
| 1778152007 | 20.56° C | 51% | 1013.3 hPa | - | - | - | - |
| 1778151411 | 20.56° C | 51% | 1013.2 hPa | - | - | - | - |
| 1778151407 | 20.56° C | 51% | 1013.2 hPa | - | - | - | - |
| 1778150811 | 21.67° C | 51% | 1013.2 hPa | - | - | - | - |
| 1778150807 | 21.67° C | 51% | 1013.2 hPa | - | - | - | - |
| 1778150211 | 21.11° C | 50% | 1013.1 hPa | - | - | - | - |
| 1778150207 | 21.11° C | 50% | 1013.1 hPa | - | - | - | - |
| 1778149610 | 21.11° C | 52% | 1013.1 hPa | - | - | - | - |
| 1778149606 | 21.11° C | 52% | 1013.1 hPa | - | - | - | - |
| 1778149010 | 21.67° C | 50% | 1013.2 hPa | - | - | - | - |
| 1778149006 | 21.67° C | 50% | 1013.2 hPa | - | - | - | - |
| 1778148410 | 21.67° C | 53% | 1013 hPa | - | - | - | - |
* Rain since midnight (hover to see other rain measurements)
** Current wind speed in m/s (hover to see current wind gust speed)